RH
77 74 69 77 79 68 62 81 81 87 80 100 99 92 71 68 59 58 63 40 36 34 30 29 29 24 23 26 24 27 37 32 23 25 23 20 23 20 22 46 43 50 58 69 79
80 77 73 68 69 66 60 70 79 79 73 78 100 97 84 73 66 64 40 46 40 40 33 31 26 36 27 24 22 32 43 29 22 18 24 22 20 22 29 45 62 49 53 74 77
79 77 78 68 61 61 55 46 49 63 70 64 89 99 92 78 78 54 38 40 41 38 34 31 25 31 25 25 26 32 33 22 15 22 20 25 23 21 35 40 60 69 76 77 79
84 80 75 72 58 50 50 50 53 52 73 78 66 100 98 83 78 54 49 38 42 45 36 40 38 31 32 35 26 26 24 19 14 19 22 27 21 24 23 26 31 33 54 76 78
76 78 80 81 64 56 53 54 46 46 54 75 66 78 100 94 70 58 52 52 46 53 43 43 42 30 30 26 29 28 22 16 11 16 22 22 24 23 22 24 40 55 66 76 76
78 82 79 81 71 58 41 46 47 44 45 55 74 78 83 94 60 51 50 49 47 51 47 41 39 27 23 24 29 25 21 20 21 15 22 26 23 18 21 36 61 62 73 75 74
76 77 81 78 72 60 49 41 38 36 38 40 78 82 98 90 73 63 57 49 42 48 50 37 35 30 23 23 20 23 26 23 24 20 22 22 23 25 24 46 72 77 74 75 72
77 78 78 76 50 41 36 28 22 22 26 40 72 86 96 74 72 86 85 62 57 58 46 39 37 32 25 22 24 26 29 34 27 25 22 25 37 24 48 63 83 79 78 75 74
77 78 78 70 48 35 30 22 21 26 33 71 91 96 72 73 75 75 80 80 71 72 51 43 44 35 28 34 35 30 39 36 29 28 27 26 28 25 37 68 84 80 76 75 77
72 61 55 55 58 50 44 38 35 47 85 92 98 83 64 78 81 60 70 74 80 78 59 50 42 47 50 46 41 42 33 34 33 35 28 32 28 30 24 47 64 78 76 71 74
77 73 79 65 53 60 63 48 46 44 56 79 80 67 80 82 88 73 57 69 63 63 68 48 56 54 40 41 30 32 27 34 33 34 31 36 33 35 29 27 28 51 75 73 64
79 88 86 72 63 75 76 85 82 82 94 57 48 73 78 68 95 72 55 71 62 66 56 57 59 44 42 41 34 30 28 30 33 36 30 38 39 35 36 32 25 23 45 65 70
92 73 66 57 68 68 83 99 94 88 97 81 70 73 70 86 91 75 68 62 61 66 57 62 53 41 41 48 41 42 31 31 36 40 32 40 41 35 35 33 27 22 22 41 58
79 69 51 56 78 77 92 96 92 90 100 81 95 86 87 84 91 70 70 54 59 65 56 53 44 40 41 42 38 49 36 34 45 48 58 36 50 44 42 41 41 29 25 41 57
53 52 42 58 88 88 97 95 89 99 96 91 90 98 99 82 96 65 72 53 59 58 58 60 53 45 44 37 34 40 38 45 46 48 51 48 62 42 45 44 46 44 26 34 42
50 84 84 85 89 93 86 80 94 81 94 92 90 91 76 96 94 69 65 56 48 52 49 50 41 42 40 35 31 35 49 58 67 65 73 51 49 46 56 36 42 39 36 26 34
57 89 82 83 88 86 77 77 84 92 61 77 78 77 85 93 100 86 82 82 70 73 70 54 56 45 37 43 38 44 46 86 82 86 73 57 56 35 36 35 31 38 38 32 33
77 84 84 85 93 82 83 84 87 72 93 68 68 70 89 100 99 96 78 95 73 58 72 67 76 52 45 42 42 45 41 80 79 91 70 55 62 43 37 44 37 31 39 44 45
78 81 81 67 80 80 75 93 94 91 89 88 80 76 93 97 97 100 84 90 73 67 67 64 64 45 44 40 34 52 54 42 63 56 66 57 43 35 46 54 53 46 40 42 46
78 78 76 80 82 82 87 88 90 71 65 76 97 83 96 95 92 97 98 66 69 53 44 51 61 45 43 38 38 37 36 50 66 71 66 62 51 43 49 50 72 80 65 57 50
68 73 68 70 75 73 96 99 81 60 64 78 89 91 84 97 97 97 100 75 52 50 43 44 54 59 49 51 46 50 44 49 50 68 54 64 59 40 41 44 64 67 65 72 65
70 90 69 43 76 92 96 82 65 66 70 86 99 94 95 95 94 98 99 98 62 45 53 40 50 66 57 45 44 43 40 47 50 59 67 68 49 45 42 41 48 57 74 77 65
98 85 74 50 94 90 82 80 70 68 82 81 81 81 77 92 94 97 96 74 84 77 54 42 56 77 62 49 44 44 43 38 37 49 53 61 47 52 54 50 52 72 88 91 81
83 96 71 61 82 93 90 79 82 67 76 69 70 79 73 76 89 87 75 75 75 76 79 78 64 55 63 54 53 53 47 43 44 60 49 42 40 32 51 61 73 74 76 80 84
90 92 92 97 90 99 85 86 92 93 79 75 76 74 86 98 78 76 82 72 60 77 73 80 99 77 53 44 43 52 47 47 47 41 48 40 40 30 34 58 67 75 86 90 89
89 99 87 91 100 94 96 94 100 91 91 88 94 86 94 95 84 92 77 78 84 97 90 74 99 93 93 56 45 50 46 44 42 41 39 37 38 30 45 57 69 79 86 88 84
85 92 100 87 98 93 92 93 91 88 76 79 85 97 94 84 82 87 77 70 72 92 100 100 96 98 96 63 61 72 52 46 44 42 40 51 40 56 63 64 69 76 74 70 70
Wind_Speed
15 14 12 13 13 15 12 12 17 16 18 9 11 10 11 12 15 16 22 20 23 10 16 18 17 17 17 12 9 3 2 4 7 7 4 13 6 16 10 22 7 10 20 30 35
13 12 12 13 13 13 13 12 15 17 16 19 10 8 10 12 15 22 24 18 14 16 19 25 23 20 10 9 8 4 3 8 7 6 6 9 17 17 10 12 6 11 13 41 36
12 10 10 13 13 13 13 12 14 14 13 15 15 10 8 9 11 22 21 22 23 22 17 20 22 19 7 9 8 7 5 5 3 3 14 14 13 6 23 1 16 28 38 42 38
12 10 11 12 13 13 13 11 11 11 12 10 17 8 10 9 7 5 7 17 25 22 25 21 22 12 6 7 13 4 10 5 5 4 14 8 16 7 12 9 21 25 37 44 40
12 10 11 11 13 12 12 13 11 13 11 10 16 21 3 12 18 11 10 5 23 28 27 27 28 12 7 7 10 7 2 3 14 4 12 15 5 8 4 13 24 32 41 42 38
13 13 15 13 12 14 13 14 12 14 14 10 10 21 22 15 21 20 11 10 14 33 30 31 23 21 12 6 6 13 14 1 5 6 1 8 6 13 7 20 32 37 41 39 37
16 17 16 14 13 15 14 14 15 13 16 13 8 15 16 23 9 15 17 15 11 33 34 34 10 21 10 4 10 3 4 2 4 5 3 12 2 5 20 31 36 37 37 37 36
18 17 16 15 15 16 18 16 17 17 18 20 10 8 12 14 18 14 15 13 13 27 30 33 18 24 5 3 4 8 5 5 4 8 2 4 8 2 23 37 33 36 35 36 36
18 17 16 17 17 16 17 18 19 17 16 11 10 8 9 9 24 22 13 12 17 20 22 25 20 6 8 4 4 3 6 5 2 7 5 4 5 6 25 31 30 35 36 35 34
19 18 16 16 18 18 19 18 10 7 3 3 9 5 15 10 19 28 21 10 18 20 20 11 10 5 2 5 14 8 6 3 7 6 2 5 4 2 26 31 33 36 36 36 36
20 19 19 18 18 18 15 13 6 2 3 9 7 11 8 5 13 30 30 19 15 25 7 8 7 16 15 7 5 6 9 6 3 6 5 8 7 6 13 14 20 32 36 36 34
22 20 20 19 18 9 13 8 7 8 12 15 15 26 17 20 7 26 32 17 13 15 7 5 19 11 9 10 5 6 8 5 2 4 5 4 8 2 6 7 24 33 32 36 35
23 22 20 19 10 10 11 8 11 15 4 12 11 11 13 15 12 24 37 19 15 9 16 11 3 9 8 8 11 3 8 6 5 4 3 5 5 6 5 5 17 25 33 35 40
26 22 19 18 3 12 8 12 14 11 2 6 7 3 11 10 8 23 39 25 6 17 13 3 6 16 10 14 13 8 6 6 8 6 5 6 5 6 7 9 7 24 33 37 36
24 20 17 13 12 9 10 14 15 5 3 8 7 16 14 12 15 19 39 17 14 10 8 10 14 18 19 17 9 6 7 8 7 6 5 3 3 6 10 11 9 13 32 37 38
24 14 15 11 7 5 12 15 9 5 3 4 3 6 9 4 9 11 30 15 14 7 4 7 15 10 11 6 11 6 7 6 5 4 3 7 8 5 7 14 10 16 31 39 39
19 10 12 11 10 9 10 8 4 4 2 5 4 7 7 3 3 6 23 18 9 13 12 5 5 3 11 9 6 6 11 1 1 1 5 5 6 9 7 12 16 22 36 42 40
12 9 12 17 12 8 6 5 7 4 3 4 7 5 4 3 3 5 21 19 14 3 7 12 7 11 9 11 12 14 13 6 8 5 3 5 7 6 4 2 11 23 28 37 36
7 8 14 18 13 6 4 5 3 5 5 9 10 4 6 6 4 5 12 22 11 11 7 12 7 4 5 4 13 7 11 7 7 3 4 5 5 4 1 3 1 18 32 42 42
6 5 21 21 11 2 5 3 3 4 9 4 3 4 4 6 6 9 8 14 10 9 3 6 4 1 3 4 2 18 9 4 1 8 5 3 5 8 5 8 5 8 24 37 44
5 4 22 13 9 8 3 3 4 13 15 3 4 4 2 3 1 3 4 4 20 11 3 4 5 3 5 9 17 4 12 3 5 5 10 3 6 7 12 13 15 16 29 34 41
7 3 17 20 8 4 2 7 9 8 17 4 3 4 3 4 4 2 4 5 13 15 6 4 5 8 10 1 3 4 13 5 8 12 1 4 6 1 2 6 11 16 24 33 41
4 5 10 20 5 6 7 5 2 9 8 9 5 6 2 4 4 4 4 8 19 9 5 5 2 5 3 3 2 12 9 19 13 4 8 6 5 1 3 5 14 18 19 27 33
4 4 8 10 4 3 7 5 9 17 4 11 9 4 7 4 2 6 9 4 20 11 15 15 3 9 15 24 5 3 12 5 9 4 8 13 8 5 6 7 9 21 31 35 35
7 3 3 3 4 4 5 4 8 7 5 7 4 3 6 4 8 4 2 9 8 11 4 6 4 4 5 8 13 7 14 10 14 18 14 12 11 8 10 14 19 22 28 33 38
6 6 7 6 5 6 4 2 2 5 5 6 3 5 5 8 10 11 7 4 3 8 8 4 2 3 5 8 11 8 15 16 16 19 17 6 7 2 4 16 18 25 30 32 40
14 10 6 4 3 4 2 5 8 14 7 14 13 13 12 14 10 17 20 18 14 8 5 5 5 5 5 3 3 4 16 20 17 7 18 12 11 6 4 10 24 30 39 46 48
Wind_Direction
292 285 281 286 294 298 296 279 276 295 275 273 244 252 255 255 247 242 230 220 215 214 198 195 188 173 177 181 194 221 68 168 193 150 233 160 128 160 132 138 159 178 159 166 166
299 285 277 282 289 295 293 292 286 295 295 272 240 240 251 254 256 251 233 220 200 198 191 185 178 172 172 181 189 148 152 206 201 189 196 171 143 153 131 134 106 156 164 158 168
317 301 291 289 292 292 299 308 300 304 322 302 266 226 243 252 274 262 240 226 208 208 204 196 181 171 171 176 176 176 204 195 268 243 189 162 137 133 129 153 162 147 153 162 170
320 305 296 295 300 295 297 303 315 326 317 305 280 235 221 212 215 168 174 214 207 198 201 187 183 173 162 177 183 168 239 220 312 338 154 171 143 114 153 184 179 171 165 166 174
339 330 321 313 311 303 298 302 299 305 319 306 287 269 269 214 220 169 145 120 202 195 197 185 180 163 174 184 158 187 254 216 245 304 167 153 149 151 139 163 168 163 165 171 177
352 339 331 319 306 313 302 294 297 295 301 299 273 277 290 243 233 216 232 267 235 198 198 190 192 178 168 187 173 197 216 78 178 220 126 142 158 137 177 162 162 166 171 177 181
351 341 331 327 320 312 307 296 293 290 290 300 277 280 283 261 209 231 239 248 249 200 196 193 198 184 165 156 205 166 169 148 221 207 143 136 70 183 162 169 167 172 177 181 184
348 345 341 332 327 311 303 299 293 293 285 284 258 265 262 262 208 207 180 192 200 200 201 190 188 199 187 178 103 133 94 150 239 159 171 144 220 206 165 165 168 178 182 186 188
348 344 336 333 325 321 314 307 301 293 281 270 240 227 265 244 230 190 185 183 195 196 192 200 196 195 203 124 93 172 177 167 179 215 134 141 209 209 173 172 174 182 186 189 190
351 346 340 334 331 330 321 323 304 311 130 162 211 179 237 242 219 204 197 195 167 175 186 186 180 156 125 146 188 164 152 170 169 203 163 155 229 204 183 182 183 187 188 190 194
351 346 343 335 333 336 341 2 1 297 265 223 209 215 201 243 234 218 204 187 178 160 168 183 160 198 191 150 149 131 130 155 212 184 133 204 202 209 187 191 188 193 195 196 198
348 341 337 334 331 347 354 20 17 328 305 302 267 235 246 246 309 215 203 174 165 179 130 126 214 199 144 167 165 159 155 185 105 168 153 164 230 216 194 210 199 193 197 201 200
340 337 334 336 339 345 356 352 342 336 299 312 295 242 233 203 245 216 190 180 170 167 186 186 196 154 167 164 186 187 164 177 157 123 62 106 323 216 231 233 207 210 202 199 200
339 336 331 334 341 341 17 350 334 352 291 319 296 289 194 188 274 208 188 169 167 192 181 205 184 167 184 196 174 193 193 157 136 112 185 161 246 230 202 210 210 209 201 196 191
343 340 332 338 320 350 353 348 336 341 358 352 326 320 314 165 311 187 191 194 178 158 151 197 172 180 187 196 165 204 155 159 162 151 122 169 101 258 171 208 218 214 207 202 197
349 359 356 8 10 354 341 343 328 43 338 318 242 321 4 316 261 185 188 190 172 146 86 195 186 174 180 156 172 141 101 58 59 86 246 193 169 247 185 203 202 204 207 203 199
354 23 23 24 346 325 328 325 39 83 238 292 319 322 338 279 275 266 184 190 168 162 168 187 191 142 146 141 171 161 149 111 358 231 218 183 188 221 209 208 197 195 201 201 197
13 51 34 16 5 346 347 49 56 252 340 329 313 318 356 320 215 254 186 189 232 175 134 163 190 175 180 186 182 192 174 157 176 165 192 111 227 236 216 263 234 217 197 193 194
61 71 26 7 360 359 342 47 224 358 331 312 319 350 16 341 351 268 200 194 210 205 153 173 200 155 176 153 157 189 207 167 97 357 125 197 274 291 337 330 136 180 188 197 200
87 51 12 358 6 354 68 345 316 332 325 303 314 31 316 339 5 351 172 202 210 185 238 175 121 200 152 116 337 185 155 156 43 158 206 258 244 221 196 223 181 176 193 195 203
72 59 5 17 4 43 93 267 308 316 340 310 322 310 303 298 269 289 308 291 203 208 168 164 120 204 134 207 187 140 195 179 134 153 204 169 250 206 199 200 194 202 198 192 197
41 46 5 360 41 23 4 313 314 316 346 353 308 249 290 321 314 302 321 299 331 219 177 221 136 164 192 279 262 147 199 152 195 210 204 163 251 188 287 223 213 197 187 192 196
27 344 14 22 48 3 328 303 289 341 354 349 313 20 325 314 326 279 303 330 8 319 208 191 223 126 140 325 343 192 200 204 213 95 195 186 253 62 271 185 187 163 178 187 189
20 23 7 41 43 60 349 337 350 341 309 350 293 341 348 353 8 311 300 333 339 300 262 327 270 193 199 204 112 134 192 182 196 181 206 220 216 200 213 216 176 182 187 189 190
31 36 27 304 342 4 334 310 343 344 311 307 321 63 31 315 311 260 23 341 329 330 248 179 190 3 340 165 191 168 193 178 203 217 207 218 216 217 208 204 198 181 174 179 187
32 353 341 292 317 341 339 333 281 293 257 300 226 281 320 265 262 293 330 27 294 339 331 157 200 104 315 316 209 205 207 199 213 212 224 190 218 230 108 131 152 176 176 182 192
1 338 309 301 3 44 250 326 308 314 272 240 302 302 281 278 281 271 266 258 264 292 316 311 152 140 229 303 81 308 205 205 215 202 211 206 208 162 183 179 180 185 192 198 201